星链-36753(STARLINK-36753)

导读

STARLINK-36753是美国SpaceX公司于2026年2月7日发射的星链(Starlink)低轨互联网通信卫星,属于全球规模最大低轨卫星星座建设的一部分。星链星座旨在为全球提供高速低延迟宽带服务,该卫星延续量产设计,搭载通信载荷与霍尔推进器,服役后将进一步扩展星座覆盖范围与服务能力,支撑全球多场景卫星互联网应用。

Basic Information
目录编号:
67694
目录名称:
STARLINK-36753
国际标识:
2026-025B
轨道中心:
EARTH
卫星名称:
星链-36753
卫星全名:
星链-36753(STARLINK-36753)
卫星状态:
在轨 (已飞行209 天)
发射日期:
2026-02-07 UTC
国别 :
美国 (US)
星等 :
--
Orbit Information
数据来源 国际轨道数据
星历时间: 2026-09-04T01:48:55+0800
17小时前
查看轨道信息
半长轴: 6843.679km
偏心率: 0.0000874
轨道倾角: 97.284°
近地点辐角 117.382°
升交点赤经 356.818°
平近点角 242.752°
近地点: 464.943km
远地点: 466.141km
周期: 93.906分钟
每日圈数: 15.334456
Detailed Information
固有亮度:
5
最大亮度:
2.5
卫星平台:
Starlink V1.0
覆盖范围:
全球
运营商:
太空探索技术公司
运营商所在国:
美国
制造商(研发单位):
太空探索技术公司
制造商所在国:
美国
使用方式:
暂无
Satellite Introduction
Starlink 计划是 SpaceX 推出的全球卫星互联网项目,通过发射低轨道卫星,为全球尤其是偏远地区提供高速、低延迟的互联网服务。自 2019 年起,Starlink 已部署数千颗卫星,旨在缩小全球数字鸿沟,推动互联网普及。该项目还为军事、航空等行业提供通信支持,带来广泛经济效益。
2D Orbit Map
3D Orbit Map
Orbit Altitude Analysis Chart
Orbit Inclination Analysis Chart
Orbit Comprehensive Analysis Chart
View Comprehensive Chart
Conjunction Data List
Event ID Objects TCA Miss Dist (km) Collision Risk Probability Collision Risk Index (CRI) Action
CDM_260903-112505-340406-769421
2026-09-03T
11:25:10+0000
1.594 km
极远距离
3.25664E-6 低风险 0.45
CDM_260905-212904-841006-769421
2026-09-05T
21:29:20+0000
2.984 km
极远距离
1.345907E-6 低风险 0.38
CDM_260905-182604-431006-769421
OBJECT A (44310)
2026-09-05T
18:26:55+0000
2.464 km
极远距离
1.179856E-6 低风险 0.36
CDM_260905-093605-340106-769421
2026-09-05T
09:36:16+0000
2.562 km
极远距离
1.085472E-6 低风险 0.36
CDM_260905-093404-975706-769421
2026-09-05T
09:34:53+0000
2.785 km
极远距离
1.002388E-6 低风险 0.35
CDM_260905-165805-248506-769421
2026-09-05T
16:58:30+0000
2.880 km
极远距离
9.79962E-7 极低风险 0.35